St. Paul Lake Elmo, MN

12:43 PM CST on November 21, 2019 (GMT -0600)
St. Paul Lake Elmo

Weather History for K21D - September, 2019

Change the Weather History Date:

Wednesday, September 18, 2019

  Actual Average (WUND) Record (WUND)
Temperature  
Mean Temperature 72 °F -  
Max Temperature 80 °F - - (-1)
Min Temperature 64 °F - - (-1)
Cooling Degree Days 7    
Growing Degree Days 22 (Base 50)    
Moisture  
Dew Point 67 °F    
Average Humidity 86    
Maximum Humidity 100    
Minimum Humidity 65    
Precipitation  
Precipitation 0.18 in - - ()
Sea Level Pressure  
Sea Level Pressure 29.92 in    
Wind  
Wind Speed 12 mph (WSW)    
Max Wind Speed 14 mph    
Max Gust Speed 17 mph    
Visibility 9 miles    
Events Fog , Rain , Thunderstorm    
Averages and records for this station are not official NWS values.
T = Trace of Precipitation, MM = Missing Value Source: NWS Daily Summary

Daily Weather History Graph

Daily Weather History Graph

Search for Another Location

Airport or City:

Astronomy

Sep. 18, 2019 Rise Set
Actual Time 6:53 AM CDT 7:16 PM CDT
Civil Twilight 6:24 AM CDT 7:46 PM CDT
Nautical Twilight 5:49 AM CDT 8:20 PM CDT
Astronomical Twilight 5:13 AM CDT 8:56 PM CDT
Moon 9:40 PM CDT (9/18) 11:07 AM CDT (9/18)
Length of Visible Light 13h 22m
Length of Day
12h 23m
Waning Gibbous, 82% of the Moon is Illuminated
Sep 18
Waning Gibbous
Sep 21
Last Quarter
Sep 28
New
Oct 5
First Quarter
Oct 13
Full

Hourly Weather History & Observations

Time (CDT) Temp. Heat Index Dew Point Humidity Pressure Visibility Wind Dir Wind Speed Gust Speed Precip Events Conditions
12:15 AM 69.8 °F - 64.4 °F 83% 29.95 in 10.0 mi WSW 11.5 mph 17.3 mph N/A   Clear
12:16 AM 69.8 °F - 64.4 °F 83% 29.95 in 10.0 mi WSW 11.5 mph 17.3 mph N/A   Clear
12:35 AM 69.8 °F - 64.4 °F 83% 29.94 in 10.0 mi WSW 13.8 mph - N/A   Clear
12:36 AM 69.8 °F - 64.4 °F 83% 29.94 in 10.0 mi WSW 13.8 mph - N/A   Clear
12:58 AM 69.8 °F - 64.4 °F 83% 29.94 in 10.0 mi WSW 10.4 mph - N/A   Clear
1:17 AM 69.8 °F - 64.4 °F 83% 29.94 in 10.0 mi WSW 11.5 mph - N/A   Clear
1:35 AM 69.8 °F - 66.2 °F 88% 29.94 in 10.0 mi WSW 11.5 mph - N/A   Clear
1:36 AM 69.8 °F - 66.2 °F 88% 29.94 in 10.0 mi WSW 12.7 mph - N/A   Clear
1:55 AM 69.8 °F - 66.2 °F 88% 29.93 in 10.0 mi WSW 11.5 mph - N/A   Clear
1:56 AM 69.8 °F - 66.2 °F 88% 29.93 in 10.0 mi WSW 11.5 mph - N/A   Clear
2:19 AM 69.8 °F - 66.2 °F 88% 29.92 in 10.0 mi WSW 13.8 mph - N/A   Clear
2:36 AM 69.8 °F - 66.2 °F 88% 29.92 in 10.0 mi WSW 12.7 mph - N/A   Clear
2:55 AM 69.8 °F - 66.2 °F 88% 29.91 in 10.0 mi WSW 12.7 mph - N/A   Clear
3:15 AM 69.8 °F - 68.0 °F 94% 29.90 in 10.0 mi WSW 11.5 mph - N/A Thunderstorm Clear
3:16 AM 69.8 °F - 68.0 °F 94% 29.90 in 10.0 mi WSW 11.5 mph - N/A Thunderstorm Clear
3:35 AM 69.8 °F - 68.0 °F 94% 29.90 in 10.0 mi WSW 10.4 mph - N/A   Clear
3:57 AM 69.8 °F - 68.0 °F 94% 29.89 in 10.0 mi WSW 11.5 mph 16.1 mph N/A   Clear
4:15 AM 69.8 °F - 68.0 °F 94% 29.89 in 10.0 mi WSW 10.4 mph - N/A   Clear
4:35 AM 69.8 °F - 68.0 °F 94% 29.89 in 10.0 mi WSW 11.5 mph - N/A   Clear
4:36 AM 69.8 °F - 68.0 °F 94% 29.89 in 10.0 mi WSW 11.5 mph - N/A   Clear
4:55 AM 69.8 °F - 68.0 °F 94% 29.89 in 10.0 mi WSW 12.7 mph - N/A   Clear
5:19 AM 69.8 °F - 68.0 °F 94% 29.89 in 10.0 mi WSW 11.5 mph - N/A   Clear
5:36 AM 71.6 °F - 68.0 °F 88% 29.91 in 10.0 mi WSW 11.5 mph - N/A   Mostly Cloudy
5:55 AM 71.6 °F - 68.0 °F 88% 29.92 in 10.0 mi WSW 10.4 mph - N/A   Overcast
5:56 AM 71.6 °F - 68.0 °F 88% 29.92 in 10.0 mi WSW 11.5 mph - N/A   Overcast
6:15 AM 71.6 °F - 68.0 °F 88% 29.93 in 10.0 mi WSW 10.4 mph - N/A   Mostly Cloudy
6:16 AM 71.6 °F - 68.0 °F 88% 29.93 in 10.0 mi WSW 10.4 mph - N/A   Mostly Cloudy
6:35 AM 71.6 °F - 68.0 °F 88% 29.93 in 10.0 mi WSW 12.7 mph - N/A Thunderstorm Scattered Clouds
6:57 AM 71.6 °F - 68.0 °F 88% 29.93 in 10.0 mi WSW 11.5 mph 17.3 mph N/A Rain Light Rain
7:16 AM 69.8 °F - 68.0 °F 94% 29.94 in 5.0 mi WSW 11.5 mph - 0.05 in Rain , Thunderstorm Rain
7:35 AM 69.8 °F - 68.0 °F 94% 29.92 in 5.0 mi WSW 12.7 mph - 0.11 in Rain Rain
7:36 AM 69.8 °F - 68.0 °F 94% 29.92 in 5.0 mi WSW 12.7 mph - 0.11 in Rain Rain
7:55 AM 69.8 °F - 68.0 °F 94% 29.87 in 5.0 mi North - - 0.15 in Rain Light Rain
8:18 AM 69.8 °F - 68.0 °F 94% 29.91 in 10.0 mi North - - 0.01 in Thunderstorm Unknown
8:35 AM 69.8 °F - 68.0 °F 94% 29.95 in 10.0 mi North - - 0.01 in Rain Light Rain
8:36 AM 69.8 °F - 68.0 °F 94% 29.95 in 10.0 mi North - - 0.02 in Rain Light Rain
8:55 AM 69.8 °F - 68.0 °F 94% 29.95 in 10.0 mi North - - 0.03 in Rain Rain
8:59 AM 69.8 °F - 68.0 °F 94% 29.95 in 10.0 mi North - - 0.03 in Rain Light Rain
9:35 AM 68.0 °F - 66.2 °F 94% 29.92 in 10.0 mi North - - N/A   Clear
9:39 AM 68.0 °F - 66.2 °F 94% 29.92 in 10.0 mi North - - N/A   Scattered Clouds
9:55 AM 68.0 °F - 66.2 °F 94% 29.93 in 10.0 mi North - - N/A Thunderstorm Scattered Clouds
10:15 AM 68.0 °F - 66.2 °F 94% 29.93 in 10.0 mi North - - N/A   Scattered Clouds
10:16 AM 68.0 °F - 66.2 °F 94% 29.93 in 10.0 mi North - - N/A   Scattered Clouds
10:55 AM 68.0 °F - 64.4 °F 88% 29.92 in 10.0 mi North - - N/A   Scattered Clouds
11:15 AM 68.0 °F - 64.4 °F 88% 29.93 in 10.0 mi North - - N/A   Overcast
11:37 AM 69.8 °F - 66.2 °F 88% 29.92 in 10.0 mi North - - N/A   Overcast
11:55 AM 69.8 °F - 66.2 °F 88% 29.93 in 10.0 mi North - - N/A   Overcast
11:56 AM 69.8 °F - 66.2 °F 88% 29.93 in 10.0 mi North - - N/A   Overcast
12:17 PM 69.8 °F - 68.0 °F 94% 29.92 in 10.0 mi North - - N/A   Overcast
12:35 PM 71.6 °F - 66.2 °F 83% 29.92 in 10.0 mi North - - N/A   Overcast
12:36 PM 71.6 °F - 66.2 °F 83% 29.92 in 10.0 mi North - - N/A   Overcast
12:57 PM 71.6 °F - 64.4 °F 78% 29.91 in 10.0 mi North - - N/A   Overcast
1:15 PM 73.4 °F - 64.4 °F 73% 29.91 in 10.0 mi North - - N/A   Scattered Clouds
1:16 PM 73.4 °F - 66.2 °F 78% 29.91 in 10.0 mi North - - N/A   Scattered Clouds
1:38 PM 75.2 °F - 66.2 °F 73% 29.90 in 10.0 mi North - - N/A   Mostly Cloudy
1:55 PM 77.0 °F - 66.2 °F 69% 29.90 in 10.0 mi North - - N/A   Scattered Clouds
1:56 PM 77.0 °F - 66.2 °F 69% 29.90 in 10.0 mi North - - N/A   Scattered Clouds
2:18 PM 78.8 °F - 66.2 °F 65% 29.88 in 10.0 mi North - - N/A   Clear
2:35 PM 78.8 °F - 68.0 °F 69% 29.87 in 10.0 mi North - - N/A   Clear
2:36 PM 78.8 °F - 68.0 °F 69% 29.87 in 10.0 mi North - - N/A   Clear
2:58 PM 80.6 °F 83.2 °F 68.0 °F 65% 29.87 in 7.0 mi North - - N/A   Scattered Clouds
3:15 PM 78.8 °F - 68.0 °F 69% 29.87 in 10.0 mi North - - N/A   Mostly Cloudy
3:16 PM 78.8 °F - 68.0 °F 69% 29.87 in 10.0 mi North - - N/A   Mostly Cloudy
3:39 PM 78.8 °F - 68.0 °F 69% 29.87 in 10.0 mi North - - N/A   Scattered Clouds
3:56 PM 80.6 °F 83.9 °F 69.8 °F 70% 29.87 in 7.0 mi North - - N/A   Scattered Clouds
4:15 PM 80.6 °F 83.9 °F 69.8 °F 70% 29.87 in 10.0 mi North - - N/A   Mostly Cloudy
4:16 PM 80.6 °F 83.9 °F 69.8 °F 70% 29.87 in 10.0 mi North - - N/A   Mostly Cloudy
4:37 PM 80.6 °F 83.9 °F 69.8 °F 70% 29.87 in 7.0 mi North - - N/A   Mostly Cloudy
4:55 PM 80.6 °F 83.9 °F 69.8 °F 70% 29.88 in 7.0 mi North - - N/A   Scattered Clouds
4:56 PM 80.6 °F 83.9 °F 69.8 °F 70% 29.88 in 7.0 mi North - - N/A   Scattered Clouds
5:18 PM 78.8 °F - 69.8 °F 74% 29.89 in 10.0 mi North - - N/A   Scattered Clouds
5:35 PM 78.8 °F - 69.8 °F 74% 29.89 in 10.0 mi North - - N/A   Scattered Clouds
5:58 PM 78.8 °F - 69.8 °F 74% 29.89 in 10.0 mi North - - N/A   Mostly Cloudy
6:15 PM 77.0 °F - 69.8 °F 78% 29.89 in 10.0 mi North - - N/A   Scattered Clouds
6:16 PM 77.0 °F - 69.8 °F 78% 29.89 in 7.0 mi North - - N/A   Scattered Clouds
6:35 PM 77.0 °F - 69.8 °F 78% 29.89 in 10.0 mi North - - N/A   Clear
6:57 PM 77.0 °F - 69.8 °F 78% 29.89 in 7.0 mi North - - N/A   Clear
7:16 PM 77.0 °F - 69.8 °F 78% 29.90 in 10.0 mi North - - N/A   Mostly Cloudy
7:39 PM 75.2 °F - 69.8 °F 83% 29.91 in 7.0 mi North - - N/A   Mostly Cloudy
7:55 PM 73.4 °F - 69.8 °F 88% 29.92 in 10.0 mi North - - N/A   Mostly Cloudy
8:15 PM 73.4 °F - 69.8 °F 88% 29.92 in 7.0 mi North - - N/A   Scattered Clouds
8:16 PM 73.4 °F - 69.8 °F 88% 29.92 in 10.0 mi North - - N/A   Scattered Clouds
8:39 PM 71.6 °F - 69.8 °F 94% 29.92 in 7.0 mi North - - N/A   Scattered Clouds
8:56 PM 71.6 °F - 69.8 °F 94% 29.93 in 10.0 mi North - - N/A   Scattered Clouds
9:15 PM 71.6 °F - 69.8 °F 94% 29.94 in 10.0 mi North - - N/A   Clear
9:16 PM 71.6 °F - 69.8 °F 94% 29.94 in 10.0 mi North - - N/A   Clear
9:36 PM 69.8 °F - 68.0 °F 94% 29.94 in 10.0 mi North - - N/A   Clear
9:55 PM 69.8 °F - 68.0 °F 94% 29.95 in 10.0 mi North - - N/A   Clear
9:56 PM 69.8 °F - 68.0 °F 94% 29.95 in 10.0 mi North - - N/A   Clear
10:16 PM 69.8 °F - 68.0 °F 94% 29.95 in 10.0 mi North - - N/A   Clear
10:35 PM 68.0 °F - 68.0 °F 100% 29.96 in 10.0 mi North - - N/A   Clear
10:36 PM 68.0 °F - 68.0 °F 100% 29.96 in 10.0 mi North - - N/A   Clear
10:58 PM 66.2 °F - 64.4 °F 94% 29.96 in 7.0 mi North - - N/A   Clear
11:15 PM 66.2 °F - 64.4 °F 94% 29.96 in 7.0 mi North - - N/A   Clear
11:16 PM 66.2 °F - 64.4 °F 94% 29.96 in 7.0 mi North - - N/A   Clear
11:38 PM 64.4 °F - 64.4 °F 100% 29.97 in 1.2 mi North - - N/A   Mostly Cloudy
11:55 PM 66.2 °F - 66.2 °F 100% 29.97 in 0.2 mi North - - N/A Fog Fog
11:56 PM 66.2 °F - 66.2 °F 100% 29.97 in 0.2 mi North - - N/A Fog Fog